Home > Weather > Germering > Past weeks

Flag for Germany Past Weather in Germering, Bavaria, Germany — Yesterday and Last 2 Weeks

Now
52 °F

Passing clouds.


Feels Like: 51 °F
Forecast: 53 / 75 °F
Wind: 3 mph from East

Location: Landsberg

Current Time: May 26, 2016 at 4:59:58 AM

Latest Report: May 26, 2016 at 4:20 AM


Visibility: N/A

Pressure: 30.01 "Hg (28.13 "Hg at 538m altitude)

Humidity: 100%

Dew Point: 52 °F

Location of GermeringLocation

Past Weather in Germering — Graph

°F

Germering Temperature Yesterday

Maximum temperature yesterday: 63 °F (at 3:20 PM)
Minimum temperature yesterday: 48 °F (at 12:20 AM)
Average temperature yesterday: 54 °F

High & Low Weather Summary for the Past Weeks

 TemperatureHumidityPressure
High81 °F (May 22, 3:20 PM)100% (May 11, 3:20 AM)30.18 "Hg (May 11, 3:20 AM)
Low41 °F (May 15, 1:20 AM)32% (May 22, 1:20 PM)29.45 "Hg (May 13, 3:20 AM)
Average51 °F78%29.90 "Hg
* Reported May 11 3:20 AM — May 26 3:20 AM, Germering, Weather by CustomWeather, © 2016

Note: Actual official high and low records may vary slightly from our data, if they occured in-between our weather recording intervals... More about our weather records

Advertising

Germering Weather History for the Previous 24 Hours

Scroll right to see more
 ConditionsComfort  
Time TempWeatherWind HumidityBarometerVisibility
3:20 AM
Thu, May 26
52 °FOvercast.2 mph94%30.01 "HgN/A
2:20 AM52 °FOvercast.5 mph94%30.01 "Hg6 mi
1:20 AM52 °FOvercast.2 mph94%30.01 "HgN/A
12:20 AM54 °FPassing clouds.1 mph88%30.01 "HgN/A
11:20 PM
Wed, May 25
54 °FPassing clouds.5 mph88%30.01 "HgN/A
10:20 PM54 °FPassing clouds.5 mph94%30.01 "HgN/A
9:20 PM55 °FPartly sunny.6 mph88%29.98 "HgN/A
8:20 PM59 °FPartly sunny.6 mph77%29.98 "HgN/A
7:20 PM61 °FPartly sunny.6 mph68%29.95 "HgN/A
6:20 PM63 °FPartly sunny.6 mph64%29.95 "HgN/A
5:20 PM63 °FPartly sunny.3 mph64%29.95 "HgN/A
4:20 PM63 °FPartly sunny.7 mph64%29.95 "HgN/A
3:20 PM63 °FScattered clouds.5 mph68%29.95 "HgN/A
2:20 PM61 °FScattered clouds.3 mph68%29.95 "HgN/A
1:20 PM61 °FScattered clouds.3 mph63%29.98 "HgN/A
12:20 PM57 °FPartly sunny.3 mph67%29.98 "HgN/A
11:20 AM54 °FPartly sunny.3 mph77%29.98 "HgN/A
11:04 AM54 °FPartly sunny.2 mph77%29.98 "HgN/A
10:20 AM52 °FPartly sunny.5 mph77%29.98 "HgN/A
9:20 AM50 °FOvercast.5 mph82%29.98 "HgN/A
8:20 AM50 °FLow clouds.3 mph88%29.98 "Hg6 mi
7:20 AM48 °FFog.2 mph94%29.98 "Hg2 mi
6:20 AM48 °FFog.3 mph94%29.98 "Hg2 mi
5:20 AM48 °FFog.2 mph94%29.95 "Hg2 mi
4:20 AM48 °FDrizzle. Fog.1 mph94%29.95 "Hg2 mi
Weather by CustomWeather, © 2016

See weather overviewHow to use our weather pages